User: anonymous   Login
Location: Bismarck
(46.7731°N, 100.8200°W)
Time: 20:36:04
(UTC-06:00)
Language:

Landsat 7 - Orbit

View from above orbital plane
View from above orbital plane
View from above satellite
View from above satellite

Ground track
Ground track

The orbit data is extracted from the following two-line orbital elements,

1 25682U 99020A   16040.39139140  .00000167  00000-0  47273-4 0  9995
2 25682  98.2289 112.4551 0001440  89.7996 270.3373 14.57106573894688
Epoch (UTC): 09 February 2016 09:23:36
Eccentricity: 0.0001440
inclination: 98.2289°
perigee height: 701 km
apogee height: 703 km
right ascension of ascending node: 112.4551°
argument of perigee: 89.7996°
revolutions per day: 14.57106573
mean anomaly at epoch: 270.3373°
orbit number at epoch: 89468

The dashed part of the orbit path shows where the satellite is in the earth's shadow,  

DLR